Weather History for KAMA - November, 2013

Change the Weather History Date:

Thursday, November 21, 2013

  Actual Average Record
Temperature  
Mean Temperature 40 °F 44 °F  
Max Temperature 57 °F 57 °F 81 °F (1966)
Min Temperature 22 °F 30 °F 4 °F (1906)
Degree Days  
Heating Degree Days 25 21  
Month to date heating degree days 323 352  
Since 1 July heating degree days 567 632  
Cooling Degree Days 0 0  
Month to date cooling degree days 0 0  
Year to date cooling degree days 1806 1398  
Moisture  
Dew Point 26 °F    
Average Humidity 65    
Maximum Humidity 89    
Minimum Humidity 41    
Precipitation  
Precipitation 0.00 in 0.03 in 0.44 in (2011)
Month to date precipitation 0.01 0.62  
Year to date precipitation 14.38 19.47  
Snow  
Snow 0.00 in 0.10 in 3.40 in (1916)
Month to date snowfall 0.0 1.5  
Since 1 July snowfall 0.0 1.7  
Since 1 September snowfall 0.0 1.7  
Snow Depth 0.00 in    
Sea Level Pressure  
Sea Level Pressure 30.14 in    
Wind  
Wind Speed 18 mph (NNW)    
Max Wind Speed 35 mph    
Max Gust Speed 44 mph    
Visibility 8 miles    
Events      
T = Trace of Precipitation, MM = Missing Value Source: NWS Daily Summary

Daily Weather History Graph

Daily Weather History Graph

Search for Another Location

Airport or City:

Trip Planner

Search our weather history database for the weather conditions in past years. The results will help you decide how hot, cold, wet, or windy it might be!

Date:

Astronomy

Nov. 21, 2013 Rise Set
Actual Time 7:27 AM CST 5:37 PM CST
Civil Twilight 7:00 AM CST 6:04 PM CST
Nautical Twilight 6:29 AM CST 6:35 PM CST
Astronomical Twilight 5:59 AM CST 7:06 PM CST
Moon 9:14 PM CST (11/21) 10:36 AM CST (11/21)
Length of Visible Light 11h 04m
Length of Day
10h 09m
Waning Gibbous, 85% of the Moon is Illuminated
Nov 21
Waning Gibbous
Nov 25
Last Quarter
Dec 2
New
Dec 9
First Quarter
Dec 17
Full

Hourly Weather History & Observations

Time (CST) Temp. Windchill Dew Point Humidity Pressure Visibility Wind Dir Wind Speed Gust Speed Precip Events Conditions
12:53 AM 54.0 °F - 33.1 °F 45% 29.78 in 10.0 mi Calm Calm - N/A   Overcast
1:53 AM 55.9 °F - 35.1 °F 45% 29.79 in 10.0 mi West 8.1 mph - N/A   Overcast
2:53 AM 54.0 °F - 35.1 °F 49% 29.81 in 10.0 mi SW 5.8 mph - N/A   Overcast
3:53 AM 53.1 °F - 36.0 °F 52% 29.82 in 10.0 mi SSW 5.8 mph - N/A   Overcast
4:53 AM 54.0 °F - 36.0 °F 51% 29.82 in 10.0 mi WSW 8.1 mph - N/A   Scattered Clouds
5:53 AM 50.0 °F - 36.0 °F 59% 29.85 in 10.0 mi South 5.8 mph - N/A   Mostly Cloudy
6:53 AM 45.0 °F 41.8 °F 35.1 °F 68% 29.89 in 10.0 mi SW 5.8 mph - N/A   Clear
7:53 AM 45.0 °F 39.7 °F 35.1 °F 68% 29.92 in 10.0 mi SSW 10.4 mph - N/A   Clear
8:53 AM 51.1 °F - 36.0 °F 56% 29.95 in 10.0 mi WSW 3.5 mph - N/A   Clear
9:53 AM 57.0 °F - 37.0 °F 47% 29.98 in 10.0 mi NNW 24.2 mph 31.1 mph N/A   Clear
10:18 AM 44.6 °F 34.7 °F 37.4 °F 76% 30.09 in 5.0 mi North 29.9 mph 35.7 mph N/A   Haze
10:28 AM 41.0 °F 30.7 °F 35.6 °F 81% 30.10 in 7.0 mi North 25.3 mph 35.7 mph N/A   Mostly Cloudy
10:53 AM 37.0 °F 25.4 °F 33.1 °F 86% 30.09 in 2.0 mi North 25.3 mph 35.7 mph N/A   Overcast
10:59 AM 35.6 °F 23.4 °F 33.8 °F 93% 30.13 in 1.0 mi North 25.3 mph 34.5 mph N/A   Overcast
11:15 AM 35.6 °F 24.0 °F 32.0 °F 87% 30.14 in 0.8 mi North 23.0 mph 31.1 mph N/A   Overcast
11:53 AM 34.0 °F 21.5 °F 30.0 °F 85% 30.13 in 2.0 mi North 24.2 mph 28.8 mph N/A   Overcast
12:33 PM 32.0 °F 19.2 °F 28.4 °F 87% 30.17 in 2.0 mi North 23.0 mph 31.1 mph N/A   Overcast
12:53 PM 32.0 °F 19.2 °F 28.0 °F 85% 30.16 in 2.0 mi North 23.0 mph 28.8 mph N/A   Overcast
1:44 PM 30.2 °F 16.5 °F 26.6 °F 86% 30.17 in 3.0 mi North 24.2 mph 31.1 mph N/A   Overcast
1:53 PM 30.9 °F 16.9 °F 26.1 °F 82% 30.15 in 3.0 mi North 26.5 mph 33.4 mph N/A   Overcast
1:59 PM 30.2 °F 16.5 °F 24.8 °F 80% 30.17 in 10.0 mi North 24.2 mph 33.4 mph N/A   Overcast
2:53 PM 30.0 °F 16.3 °F 24.1 °F 79% 30.19 in 9.0 mi North 24.2 mph 32.2 mph N/A   Overcast
3:19 PM 30.2 °F 16.8 °F 23.0 °F 75% 30.20 in 10.0 mi North 23.0 mph 31.1 mph N/A   Overcast
3:53 PM 30.0 °F 16.3 °F 21.9 °F 72% 30.19 in 10.0 mi North 24.2 mph 31.1 mph N/A   Overcast
4:30 PM 28.4 °F 14.7 °F 21.2 °F 74% 30.23 in 10.0 mi North 21.9 mph 29.9 mph N/A   Overcast
4:53 PM 28.9 °F 15.8 °F 19.9 °F 69% 30.23 in 10.0 mi North 20.7 mph 32.2 mph N/A   Overcast
5:53 PM 27.0 °F 11.6 °F 19.0 °F 72% 30.27 in 10.0 mi North 26.5 mph 33.4 mph N/A   Overcast
6:53 PM 27.0 °F 12.2 °F 18.0 °F 69% 30.34 in 10.0 mi North 24.2 mph 32.2 mph N/A   Overcast
7:53 PM 26.1 °F 10.7 °F 17.1 °F 69% 30.35 in 10.0 mi North 25.3 mph 33.4 mph N/A   Overcast
8:53 PM 24.1 °F 6.9 °F 15.1 °F 69% 30.38 in 10.0 mi North 29.9 mph 36.8 mph N/A   Overcast
9:26 PM 23.0 °F 6.0 °F 12.2 °F 63% 30.36 in 9.0 mi North 27.6 mph 42.6 mph N/A   Scattered Clouds
9:36 PM 23.0 °F 5.1 °F 12.2 °F 63% 30.37 in 10.0 mi North 31.1 mph 39.1 mph N/A   Mostly Cloudy
9:53 PM 21.9 °F 3.4 °F 12.9 °F 68% 30.38 in 10.0 mi North 32.2 mph 38.0 mph N/A   Mostly Cloudy
10:04 PM 21.2 °F 3.0 °F 12.2 °F 68% 30.38 in 10.0 mi North 29.9 mph 38.0 mph N/A   Partly Cloudy
10:53 PM 21.9 °F 3.4 °F 12.0 °F 66% 30.45 in 10.0 mi North 32.2 mph 38.0 mph N/A   Partly Cloudy
11:53 PM 21.9 °F 4.8 °F 12.0 °F 66% 30.47 in 10.0 mi North 26.5 mph 41.4 mph N/A   Clear